Location: Chevoux
(46.3801°N, 4.9476°E)
Time: 21:57:28
(UTC+00:00)

SJ 16-02 - Pass Details

Date: 28 January 2021
Orbit: 606 x 616 km, 75.0° (Epoch: 04 March)

Event Time Altitude Azimuth Distance (km) Brightness Sun altitude
Rises 17:29:57 0° 219° (SW) 2,863 5.8 -9.0°
Reaches altitude 10° 17:32:18 10° 227° (SW) 1,961 5.1 -9.4°
Maximum altitude 17:36:24 38° 297° (WNW) 930 2.7 -10.1°
Drops below altitude 10° 17:40:32 10° 6° (N) 1,970 3.7 -10.8°
Sets 17:42:54 0° 15° (NNE) 2,878 4.5 -11.2°
